Powrót do katalogu

STARLINK-5062

AktywnyŁącznośćVLEO
NORAD 55637·PAYLOAD·🇺🇸 United States

Wystrzelony Feb 17, 2023 z Vandenberg Space Force Base

Loading…

Następne Przeloty (najbliższe 24 godziny)

TLE

ŚwieżeSource: CelesTrak SupGP

Epoka: Sep 15, 2026, 01:30 UTC

1 55637C 23021K   26258.06298611 -.00050214  00000+0 -42073-2 0  2589
2 55637  70.0010  67.0910 0002777 265.8791 140.4457 14.98364893    11

Śledź STARLINK-5062 w czasie rzeczywistym z AllMySat

Download on the App Store